When you browse on this site, cookies collect data to enhance your experience and personalize the content and advertising you see.
Visit our Privacy Policy to learn more. By continuing to use the site, you agree to this use of cookies and data.
  • En España
  • Lista de países
  • Para 7 días
  • Temperatura del agua
  • El tiempo en el mapa
  • Informadores
  • user-avatar
    Iniciar sesión

    Tiempo cada hora Shymkent

    Hoy, 13 Noviembre, Miércoles

    Tiempo Temperatura Precipitaciones Viento Presión Humedad
    00:00 +6°C° 0 mm 1 mps 721 mmHg 37%
    01:00 +6°C° 0 mm 1 mps 721 mmHg 36%
    02:00 +6°C° 0 mm 1 mps 721 mmHg 36%
    03:00 +6°C° 0 mm 1 mps 721 mmHg 35%
    04:00 +5°C° 0 mm 1 mps 721 mmHg 34%
    05:00 +5°C° 0 mm 1 mps 721 mmHg 33%
    06:00 +5°C° 0 mm 1 mps 721 mmHg 32%
    07:00 +6°C° 0 mm 1 mps 721 mmHg 31%
    08:00 +6°C° 0 mm 1 mps 721 mmHg 31%
    09:00 +8°C° 0 mm 1 mps 721 mmHg 27%
    10:00 +10°C° 0 mm 1 mps 721 mmHg 24%
    11:00 +12°C° 0 mm 1 mps 722 mmHg 21%
    12:00 +13°C° 0 mm 1 mps 721 mmHg 20%
    13:00 +14°C° 0 mm 2 mps 721 mmHg 19%
    14:00 +15°C° 0 mm 2 mps 721 mmHg 18%
    15:00 +13°C° 0 mm 2 mps 721 mmHg 21%
    16:00 +12°C° 0 mm 1 mps 720 mmHg 24%
    17:00 +10°C° 0 mm 1 mps 720 mmHg 27%
    18:00 +9°C° 0 mm 1 mps 720 mmHg 29%
    19:00 +9°C° 0 mm 1 mps 720 mmHg 31%
    20:00 +7°C° 0 mm 0 mps 720 mmHg 32%
    21:00 +7°C° 0 mm 1 mps 720 mmHg 33%
    22:00 +7°C° 0 mm 1 mps 720 mmHg 33%
    23:00 +7°C° 0 mm 1 mps 720 mmHg 33%

    Mañana, 14 Noviembre, Jueves

    Tiempo Temperatura Precipitaciones Viento Presión Humedad
    00:00 +7°C° 0 mm 1 mps 720 mmHg 33%
    01:00 +7°C° 0 mm 1 mps 720 mmHg 33%
    02:00 +7°C° 0 mm 1 mps 720 mmHg 33%
    03:00 +6°C° 0 mm 1 mps 720 mmHg 34%
    04:00 +6°C° 0 mm 1 mps 720 mmHg 34%
    05:00 +6°C° 0 mm 1 mps 720 mmHg 34%
    06:00 +6°C° 0 mm 1 mps 720 mmHg 34%
    07:00 +7°C° 0 mm 1 mps 720 mmHg 33%
    08:00 +7°C° 0 mm 1 mps 720 mmHg 33%
    09:00 +8°C° 0 mm 2 mps 720 mmHg 29%
    10:00 +12°C° 0 mm 2 mps 720 mmHg 26%
    11:00 +14°C° 0 mm 2 mps 720 mmHg 22%
    12:00 +14°C° 0 mm 2 mps 720 mmHg 22%
    13:00 +15°C° 0 mm 2 mps 720 mmHg 22%
    14:00 +15°C° 0 mm 2 mps 719 mmHg 22%
    15:00 +14°C° 0 mm 2 mps 719 mmHg 25%
    16:00 +13°C° 0 mm 2 mps 719 mmHg 27%
    17:00 +13°C° 0 mm 2 mps 719 mmHg 30%
    18:00 +12°C° 0 mm 1 mps 719 mmHg 32%
    19:00 +11°C° 0 mm 1 mps 719 mmHg 35%
    20:00 +9°C° 0 mm 0 mps 720 mmHg 37%
    21:00 +9°C° 0 mm 1 mps 720 mmHg 39%
    22:00 +9°C° 0 mm 1 mps 720 mmHg 40%
    23:00 +9°C° 0 mm 1 mps 720 mmHg 41%

    Pasado mañana, 15 Noviembre, Viernes

    Tiempo Temperatura Precipitaciones Viento Presión Humedad
    00:00 +9°C° 0 mm 1 mps 720 mmHg 42%
    01:00 +9°C° 0 mm 1 mps 720 mmHg 43%
    02:00 +9°C° 0 mm 1 mps 720 mmHg 44%
    03:00 +9°C° 0 mm 1 mps 720 mmHg 45%
    04:00 +8°C° 0 mm 1 mps 720 mmHg 45%
    05:00 +7°C° 0 mm 2 mps 720 mmHg 45%
    06:00 +7°C° 0 mm 2 mps 721 mmHg 45%
    07:00 +8°C° 0 mm 1 mps 721 mmHg 45%
    08:00 +9°C° 0 mm 1 mps 722 mmHg 44%
    09:00 +9°C° 0 mm 2 mps 722 mmHg 40%
    10:00 +12°C° 0 mm 2 mps 722 mmHg 35%
    11:00 +14°C° 0 mm 2 mps 723 mmHg 31%
    12:00 +15°C° 0 mm 2 mps 723 mmHg 29%
    13:00 +16°C° 0 mm 3 mps 722 mmHg 27%
    14:00 +17°C° 0 mm 3 mps 722 mmHg 26%
    15:00 +14°C° 0 mm 3 mps 722 mmHg 27%
    16:00 +13°C° 0 mm 2 mps 722 mmHg 30%
    17:00 +12°C° 0 mm 2 mps 722 mmHg 33%
    18:00 +10°C° 0 mm 2 mps 722 mmHg 35%
    19:00 +9°C° 0 mm 2 mps 722 mmHg 36%
    20:00 +8°C° 0 mm 2 mps 722 mmHg 38%
    21:00 +7°C° 0 mm 2 mps 722 mmHg 39%
    22:00 +7°C° 0 mm 2 mps 722 mmHg 40%
    23:00 +6°C° 0 mm 2 mps 722 mmHg 41%

    16 Noviembre, Sábado

    Tiempo Temperatura Precipitaciones Viento Presión Humedad
    00:00 +6°C° 0 mm 2 mps 722 mmHg 41%
    01:00 +6°C° 0 mm 2 mps 723 mmHg 42%
    02:00 +6°C° 0 mm 2 mps 723 mmHg 42%
    03:00 +5°C° 0 mm 2 mps 723 mmHg 43%
    04:00 +6°C° 0 mm 1 mps 722 mmHg 44%
    05:00 +6°C° 0 mm 1 mps 722 mmHg 45%
    06:00 +6°C° 0 mm 1 mps 723 mmHg 45%
    07:00 +6°C° 0 mm 1 mps 723 mmHg 44%
    08:00 +5°C° 0 mm 2 mps 723 mmHg 44%
    09:00 +8°C° 0 mm 2 mps 723 mmHg 39%
    10:00 +10°C° 0 mm 2 mps 724 mmHg 35%
    11:00 +13°C° 0 mm 2 mps 724 mmHg 30%
    12:00 +14°C° 0 mm 2 mps 724 mmHg 29%
    13:00 +15°C° 0 mm 2 mps 724 mmHg 29%
    14:00 +15°C° 0 mm 1 mps 724 mmHg 28%
    15:00 +14°C° 0 mm 1 mps 724 mmHg 31%
    16:00 +12°C° 0 mm 1 mps 724 mmHg 34%
    17:00 +11°C° 0 mm 1 mps 724 mmHg 38%
    18:00 +10°C° 0 mm 1 mps 724 mmHg 40%
    19:00 +9°C° 0 mm 1 mps 724 mmHg 42%
    20:00 +8°C° 0 mm 1 mps 724 mmHg 44%
    21:00 +8°C° 0 mm 1 mps 724 mmHg 44%
    22:00 +8°C° 0 mm 1 mps 724 mmHg 45%
    23:00 +7°C° 0 mm 1 mps 724 mmHg 46%

    17 Noviembre, Domingo

    Tiempo Temperatura Precipitaciones Viento Presión Humedad
    00:00 +7°C° 0 mm 1 mps 724 mmHg 46%
    01:00 +7°C° 0 mm 1 mps 724 mmHg 46%
    02:00 +7°C° 0 mm 1 mps 724 mmHg 46%
    03:00 +7°C° 0 mm 1 mps 724 mmHg 45%
    04:00 +7°C° 0 mm 1 mps 724 mmHg 45%
    05:00 +6°C° 0 mm 1 mps 724 mmHg 45%
    06:00 +7°C° 0 mm 1 mps 724 mmHg 44%
    07:00 +7°C° 0 mm 1 mps 724 mmHg 43%
    08:00 +7°C° 0 mm 1 mps 724 mmHg 41%
    09:00 +9°C° 0 mm 1 mps 725 mmHg 37%
    10:00 +11°C° 0 mm 1 mps 725 mmHg 33%
    11:00 +13°C° 0 mm 1 mps 725 mmHg 29%
    12:00 +14°C° 0 mm 1 mps 725 mmHg 29%
    13:00 +14°C° 0 mm 1 mps 724 mmHg 28%
    14:00 +15°C° 0 mm 2 mps 724 mmHg 28%
    15:00 +13°C° 0 mm 1 mps 724 mmHg 31%
    16:00 +12°C° 0 mm 1 mps 724 mmHg 34%
    17:00 +10°C° 0 mm 1 mps 723 mmHg 37%
    18:00 +10°C° 0 mm 1 mps 723 mmHg 39%
    19:00 +8°C° 0 mm 0 mps 723 mmHg 41%
    20:00 +7°C° 0 mm 0 mps 723 mmHg 42%
    21:00 +7°C° 0 mm 0 mps 723 mmHg 43%
    22:00 +6°C° 0 mm 0 mps 723 mmHg 44%
    23:00 +6°C° 0 mm 0 mps 723 mmHg 45%

    18 Noviembre, Lunes

    Tiempo Temperatura Precipitaciones Viento Presión Humedad
    00:00 +6°C° 0 mm 0 mps 723 mmHg 45%
    01:00 +5°C° 0 mm 0 mps 723 mmHg 46%
    02:00 +5°C° 0 mm 0 mps 722 mmHg 46%
    03:00 +5°C° 0 mm 0 mps 722 mmHg 47%
    04:00 +5°C° 0 mm 0 mps 722 mmHg 48%
    05:00 +4°C° 0 mm 0 mps 722 mmHg 49%
    06:00 +4°C° 0 mm 0 mps 722 mmHg 48%
    07:00 +5°C° 0 mm 0 mps 722 mmHg 48%
    08:00 +6°C° 0 mm 1 mps 722 mmHg 48%
    09:00 +7°C° 0 mm 1 mps 723 mmHg 43%
    10:00 +8°C° 0 mm 2 mps 723 mmHg 39%
    11:00 +10°C° 0 mm 2 mps 723 mmHg 34%
    12:00 +11°C° 0 mm 3 mps 723 mmHg 32%
    13:00 +11°C° 0 mm 3 mps 722 mmHg 30%
    14:00 +12°C° 0 mm 4 mps 722 mmHg 28%
    15:00 +11°C° 0 mm 3 mps 722 mmHg 30%
    16:00 +9°C° 0 mm 2 mps 722 mmHg 31%
    17:00 +8°C° 0 mm 2 mps 722 mmHg 33%
    18:00 +8°C° 0 mm 1 mps 722 mmHg 34%
    19:00 +7°C° 0 mm 1 mps 722 mmHg 35%
    20:00 +5°C° 0 mm 0 mps 722 mmHg 36%
    21:00 +5°C° 0 mm 0 mps 722 mmHg 36%
    22:00 +5°C° 0 mm 0 mps 722 mmHg 37%
    23:00 +4°C° 0 mm 0 mps 722 mmHg 38%
    Mostrar más